Tracking 19709 objects as of 19-Jun-2019
HD Live streaming from Space Station
objects crossing your sky now

RADUGA 7

Track RADUGA 7 now!
RADUGA 7 is classified as:


NORAD ID: 12003
Int'l Code: 1980-081A
Perigee: 35,768.8 km
Apogee: 35,845.8 km
Inclination: 11.7 °
Period: 1,436.8 minutes
Semi major axis: 42178 km
RCS: 7.9432 m2 (large)
Launch date: October 5, 1980
Source: Commonwealth of Independent States (former USSR) (CIS)
Launch site: TYURATAM MISSILE AND SPACE COMPLEX (TTMTR)
aabbcc
Your satellite tracking list
Your tracking list is empty




NASA's NSSDC Master Catalog

Two Line Element Set (TLE):
1 12003U 80081A   19170.05835439 -.00000282  00000-0  00000+0 0  9990
2 12003  11.7293 316.9536 0009124 254.4796  35.6750  1.00223502 97790
Source of the keplerian elements: AFSPC